Flag for U.S.A. Weather past 2 weeks in Charleston, South Carolina, U.S.A.

Now
36 °F

Clear.


Feels Like: 29 °F
Forecast: 33 / 47 °F
Wind: 9 mph from North

Location: Charleston Air Force Base Reporting Station

Current Time: Jan 28, 2015 at 1:38:10 AM

Latest Report: Jan 28, 2015 at 12:56 AM


Visibility: 10 mi

Pressure: 30.03 "Hg

Humidity: 73%

Dew point: 28 °F

Location of CharlestonLocation

Historic Weather in Charleston — Graph

°F

Charleston temperature yesterday

Maximum temperature yesterday: 51 °F (at 2:56 PM)
Minimum temperature yesterday: 35 °F (at 6:56 AM)
Average temperature yesterday: 42 °F

Past Weeks' High & Low Weather Summary

 TemperatureHumidityPressure
High71 °F (Jan 21, 1:56 PM)100% (Jan 13, 12:56 AM)30.35 "Hg (Jan 13, 12:56 AM)
Low33 °F (Jan 17, 5:56 AM)21% (Jan 19, 3:56 PM)29.55 "Hg (Jan 24, 4:56 AM)
Average49 °F73%30.05 "Hg
* Reported Jan 12 11:56 PM — Jan 27 11:56 PM, Charleston, Weather by CustomWeather, © 2014

Note: Actual official high and low records may vary slightly from our data, if they occured in-between our weather recording intervals... More about our weather records

Advertising

Charleston weather history for previous 24 hours

 ConditionsComfort  
Time TempWeatherWind HumidityBarometerVisibility
11:56 PM
Jan 27
39 °FClear.8 mph67%30.02 "Hg10 mi
10:56 PM37 °FClear.No wind76%30.00 "Hg10 mi
9:56 PM36 °FClear.No wind75%29.98 "Hg10 mi
8:56 PM39 °FClear.No wind67%29.97 "Hg10 mi
7:56 PM40 °FClear.5 mph63%29.96 "Hg10 mi
6:56 PM42 °FPassing clouds.5 mph53%29.95 "Hg10 mi
5:56 PM45 °FPassing clouds.6 mph44%29.92 "Hg10 mi
4:56 PM49 °FPassing clouds.10 mph35%29.89 "Hg10 mi
3:56 PM51 °FScattered clouds.13 mph36%29.87 "Hg10 mi
2:56 PM51 °FScattered clouds.14 mph31%29.85 "Hg10 mi
1:56 PM50 °FScattered clouds.9 mph33%29.84 "Hg10 mi
12:56 PM50 °FBroken clouds.10 mph33%29.85 "Hg10 mi
11:56 AM47 °FScattered clouds.12 mph36%29.86 "Hg10 mi
10:56 AM45 °FPartly sunny.13 mph44%29.88 "Hg10 mi
9:56 AM42 °FPassing clouds.15 mph53%29.88 "Hg10 mi
8:56 AM38 °FSunny.10 mph68%29.88 "Hg10 mi
7:56 AM35 °FSunny.8 mph72%29.86 "Hg10 mi
6:56 AM35 °FClear.8 mph72%29.85 "Hg10 mi
5:56 AM36 °FClear.9 mph73%29.83 "Hg10 mi
4:56 AM37 °FClear.10 mph73%29.83 "Hg10 mi
3:56 AM38 °FClear.9 mph70%29.81 "Hg10 mi
2:56 AM39 °FPassing clouds.14 mph70%29.80 "Hg10 mi
1:56 AM40 °FPassing clouds.13 mph68%29.78 "Hg10 mi
Weather by CustomWeather, © 2014

See weather overviewHow to use our weather pages